CAPE
0 0 0 0 0 0 0 0 0 0 0 0 0 0 0 0 0 0 0 0 0 657 190 2 394 937 911 475 196 137 261 361 113 25 87 369 449 353 101 130 125 17 351 4 0
0 0 0 0 0 0 0 0 0 0 0 0 0 0 0 0 0 0 0 548 688 753 0 333 275 437 14 323 72 101 386 631 78 186 307 482 426 536 13 24 1 263 299 69 38
1 1 1 0 0 0 0 0 0 0 0 0 0 0 0 0 0 0 529 954 669 131 0 804 80 252 71 9 28 53 144 196 35 36 193 620 436 29 0 0 74 308 279 190 92
2 2 1 1 0 0 0 0 0 0 0 0 0 0 0 0 0 0 241 509 595 0 20 280 215 27 98 52 96 284 396 268 110 48 65 164 389 119 151 1 66 211 231 216 228
3 3 3 2 2 1 0 0 0 0 0 0 0 0 0 0 0 0 400 154 0 0 37 82 165 101 27 12 100 330 239 297 122 74 48 19 277 547 418 185 141 171 328 302 293
1 2 3 4 3 1 1 1 1 0 0 0 1 0 0 0 0 0 0 0 0 0 146 332 13 0 1 3 32 195 260 51 42 93 96 121 102 182 404 430 290 398 290 194 170
1 1 1 2 2 2 2 2 0 0 0 0 1 0 0 0 0 0 0 0 0 177 488 292 78 99 193 2 128 46 136 101 35 15 186 80 528 204 126 418 249 174 152 163 88
1 1 0 1 2 2 3 1 0 0 0 0 0 0 0 0 1 0 0 5 1 99 527 26 1 36 52 27 0 23 39 53 150 291 0 0 0 0 6 246 161 95 118 158 146
1 1 0 1 2 3 0 0 0 0 0 0 0 0 0 0 0 59 160 251 256 248 243 147 31 27 98 43 34 45 2 114 201 237 3 169 19 7 0 107 254 178 220 250 247
6 6 2 2 1 0 0 0 0 0 0 0 0 0 0 0 0 0 90 139 159 98 68 166 11 36 10 12 18 50 35 33 101 44 317 86 50 498 479 100 248 292 326 360 377
3 4 4 4 0 0 0 0 0 0 0 0 0 0 0 0 0 0 21 141 182 136 100 102 26 9 0 0 10 118 68 101 0 12 58 203 464 100 313 209 149 314 329 473 401
0 1 2 1 0 0 0 0 0 0 0 0 0 0 0 0 0 0 0 39 45 70 72 85 60 5 19 56 21 1 7 67 82 46 27 74 221 287 60 527 258 132 247 429 393
0 0 0 0 0 0 0 0 0 0 0 0 0 0 0 0 0 0 0 0 3 5 9 0 34 20 10 0 0 1 3 1 32 36 0 28 52 214 160 19 21 283 166 354 414
0 0 0 0 0 0 0 0 0 0 0 0 0 0 0 0 0 0 0 0 0 0 0 0 6 50 36 0 18 8 7 0 0 0 0 0 0 53 0 0 10 1 8 263 287
0 0 0 0 0 0 0 0 0 0 0 0 0 0 0 0 0 0 0 0 0 0 0 0 0 0 29 7 3 1 0 0 0 0 0 0 28 15 0 3 7 0 12 0 277
0 0 0 0 0 0 0 0 0 0 0 0 0 0 0 0 0 0 0 0 0 0 0 0 0 0 0 0 0 0 0 0 0 0 1 53 42 0 0 0 0 0 2 14 101
0 0 0 0 0 0 0 0 0 0 0 0 0 0 0 0 0 0 0 0 0 0 0 0 0 0 0 0 0 0 0 0 0 0 21 24 21 3 0 0 6 0 0 26 135
0 0 0 0 0 0 0 0 0 0 0 0 0 0 0 0 0 0 0 0 0 0 0 0 0 0 0 0 0 0 0 0 0 0 0 31 0 7 5 12 6 0 6 79 177
0 0 0 0 0 0 0 0 0 0 0 0 0 0 0 0 0 0 0 0 0 0 0 0 0 0 0 0 0 0 0 0 0 0 0 0 61 0 3 0 0 0 0 0 336
0 0 0 0 0 0 0 0 0 0 0 0 0 0 0 0 0 0 0 0 0 0 0 0 0 0 0 0 0 0 0 0 0 0 0 0 0 3 0 0 0 0 23 392 330
0 0 0 0 0 0 0 0 0 0 0 0 0 0 0 0 0 0 0 0 0 0 0 0 0 0 0 0 0 0 0 0 0 0 0 0 0 0 0 9 0 0 0 132 149
0 0 0 0 0 0 0 0 0 0 0 0 0 0 0 0 0 0 0 0 0 0 0 0 0 0 0 0 0 0 0 0 0 0 0 0 0 82 0 14 0 0 21 202 35
0 0 0 0 0 0 0 0 0 0 0 0 0 0 0 0 0 0 0 0 0 0 0 0 0 0 0 0 0 0 0 0 0 0 0 0 0 4 76 58 1 29 258 271 262
0 0 0 0 0 0 0 0 0 0 0 0 0 0 0 0 0 0 0 0 0 0 0 0 0 0 0 0 0 0 0 0 0 0 0 0 0 200 163 110 38 171 301 132 128
0 0 0 0 0 0 0 0 0 0 0 0 0 0 0 0 0 0 0 0 0 0 0 0 0 0 0 0 0 0 0 0 0 0 0 0 0 160 289 114 77 167 308 318 337
0 0 0 0 0 0 0 0 0 0 0 0 0 0 0 0 0 0 0 0 0 0 0 0 0 0 0 0 0 0 0 0 0 0 0 0 0 0 231 0 0 2 324 341 464
0 0 0 0 0 0 0 0 0 0 0 0 0 0 0 0 0 0 0 0 0 0 0 0 0 0 0 0 0 0 0 0 0 0 0 0 0 0 0 0 0 0 294 481 475
CIN
-0 -0 -0 -0 -0 -0 -0 -0 -0 -0 -0 -0 -0 -0 -0 -0 -0 -0 -0 -0 -0 -446 -375 -15 -146 -99 -26 -84 -263 -288 -136 -76 -84 -197 -102 -71 -133 -185 -192 -123 -179 -108 -98 -94 -0
-0 -0 -0 -0 -0 -0 -0 -0 -0 -0 -0 -0 -0 -0 -0 -0 -0 -0 -0 -450 -424 -467 -0 -101 -150 -56 -501 -258 -265 -237 -125 -68 -78 -127 -21 -23 -203 -148 -219 -150 -45 -110 -97 -160 -204
-0 -0 -0 -0 -0 -0 -0 -0 -0 -0 -0 -0 -0 -0 -0 -0 -0 -0 -467 -491 -481 -195 -0 -85 -136 -149 -375 -263 -403 -249 -184 -79 -48 -41 -37 -72 -165 -273 -0 -0 -230 -58 -120 -111 -169
-0 -0 -0 -0 -0 -0 -0 -0 -0 -0 -0 -0 -0 -0 -0 -0 -0 -0 -648 -589 -560 -0 -247 -186 -166 -251 -260 -160 -71 -113 -96 -67 -18 -34 -14 -20 -145 -213 -164 -35 -301 -210 -133 -121 -104
-0 -0 -0 -0 -0 -0 -0 -0 -0 -0 -0 -0 -0 -0 -0 -0 -0 -0 -658 -671 -0 -0 -219 -437 -267 -255 -354 -284 -241 -191 -97 -53 -127 -22 -20 -11 -36 -60 -53 -166 -241 -257 -106 -109 -91
-0 -0 -0 -0 -0 -0 -0 -0 -0 -0 -0 -0 -0 -0 -0 -0 -0 -0 -0 -0 -0 -0 -165 -178 -298 -0 -100 -277 -339 -130 -116 -150 -97 -110 -27 -14 -22 -45 -75 -113 -136 -79 -129 -164 -162
-0 -0 -0 -0 -0 -0 -0 -0 -0 -0 -0 -0 -0 -0 -0 -0 -0 -0 -0 -0 -0 -180 -135 -171 -302 -341 -469 -230 -370 -390 -230 -237 -135 -134 -77 -46 -23 -98 -100 -109 -131 -144 -187 -205 -215
-0 -0 -0 -0 -0 -0 -0 -0 -0 -0 -0 -0 -0 -0 -0 -0 -22 -0 -0 -46 -18 -196 -86 -47 -29 -270 -339 -397 -0 -218 -184 -219 -94 -58 -0 -0 -0 -63 -42 -97 -184 -196 -208 -216 -226
-0 -0 -0 -0 -0 -0 -0 -0 -0 -0 -0 -0 -0 -0 -0 -0 -0 -137 -102 -59 -74 -86 -85 -56 -246 -302 -297 -341 -213 -134 -5 -79 -77 -52 -79 -274 -128 -134 -0 -133 -176 -193 -187 -188 -204
-0 -0 -0 -0 -0 -0 -0 -0 -0 -0 -0 -0 -0 -0 -0 -0 -0 -0 -128 -79 -45 -45 -70 -35 -180 -282 -106 -389 -99 -144 -78 -46 -65 -98 -35 -321 -142 -295 -131 -102 -137 -178 -184 -161 -169
-0 -0 -0 -0 -0 -0 -0 -0 -0 -0 -0 -0 -0 -0 -0 -0 -0 -0 -71 -33 -48 -80 -97 -37 -241 -278 -0 -0 -428 -175 -94 -72 -0 -30 -29 -16 -404 -622 -199 -127 -69 -130 -153 -163 -166
-0 -0 -0 -0 -0 -0 -0 -0 -0 -0 -0 -0 -0 -0 -0 -0 -0 -0 -0 -33 -49 -55 -110 -111 -153 -117 -116 -215 -194 -37 -41 -100 -46 -65 -58 -47 -226 -258 -232 -295 -346 -104 -137 -149 -156
-0 -0 -0 -0 -0 -0 -0 -0 -0 -0 -0 -0 -0 -0 -0 -0 -0 -0 -0 -0 -39 -105 -86 -0 -87 -111 -98 -0 -24 -93 -143 -6 -22 -27 -0 -107 -131 -119 -249 -364 -256 -155 -117 -144 -151
-0 -0 -0 -0 -0 -0 -0 -0 -0 -0 -0 -0 -0 -0 -0 -0 -0 -0 -0 -0 -0 -0 -0 -0 -25 -112 -38 -19 -80 -73 -36 -0 -0 -0 -0 -0 -0 -198 -0 -86 -222 -3 -65 -138 -156
-0 -0 -0 -0 -0 -0 -0 -0 -0 -0 -0 -0 -0 -0 -0 -0 -0 -0 -0 -0 -0 -0 -0 -0 -0 -0 -170 -112 -54 -37 -0 -0 -0 -0 -0 -0 -205 -205 -0 -96 -157 -18 -386 -0 -157
-0 -0 -0 -0 -0 -0 -0 -0 -0 -0 -0 -0 -0 -0 -0 -0 -0 -0 -0 -0 -0 -0 -0 -0 -0 -0 -0 -0 -0 -0 -0 -0 -0 -0 -1 -95 -110 -0 -0 -0 -0 -0 -71 -260 -239
-0 -0 -0 -0 -0 -0 -0 -0 -0 -0 -0 -0 -0 -0 -0 -0 -0 -0 -0 -0 -0 -0 -0 -0 -0 -0 -0 -0 -0 -0 -0 -0 -0 -0 -24 -147 -101 -135 -0 -0 -215 -0 -0 -295 -270
-0 -0 -0 -0 -0 -0 -0 -0 -0 -0 -0 -0 -0 -0 -0 -0 -0 -0 -0 -0 -0 -0 -0 -0 -0 -0 -0 -0 -0 -0 -0 -0 -0 -0 -0 -18 -0 -64 -69 -100 -233 -11 -187 -272 -169
-0 -0 -0 -0 -0 -0 -0 -0 -0 -0 -0 -0 -0 -0 -0 -0 -0 -0 -0 -0 -0 -0 -0 -0 -0 -0 -0 -0 -0 -0 -0 -0 -0 -0 -0 -0 -91 -0 -31 -4 -64 -0 -3 -0 -114
-0 -0 -0 -0 -0 -0 -0 -0 -0 -0 -0 -0 -0 -0 -0 -0 -0 -0 -0 -0 -0 -0 -0 -0 -0 -0 -0 -0 -0 -0 -0 -0 -0 -0 -0 -0 -0 -59 -0 -0 -65 -0 -45 -68 -94
-0 -0 -0 -0 -0 -0 -0 -0 -0 -0 -0 -0 -0 -0 -0 -0 -0 -0 -0 -0 -0 -0 -0 -0 -0 -0 -0 -0 -0 -0 -0 -0 -0 -0 -0 -0 -0 -0 -0 -143 -0 -0 -0 -69 -151
-0 -0 -0 -0 -0 -0 -0 -0 -0 -0 -0 -0 -0 -0 -0 -0 -0 -0 -0 -0 -0 -0 -0 -0 -0 -0 -0 -0 -0 -0 -0 -0 -0 -0 -0 -0 -0 -77 -4 -227 -0 -0 -6 -146 -62
-0 -0 -0 -0 -0 -0 -0 -0 -0 -0 -0 -0 -0 -0 -0 -0 -0 -0 -0 -0 -0 -0 -0 -0 -0 -0 -0 -0 -0 -0 -0 -0 -0 -0 -0 -0 -0 -22 -132 -115 -37 -21 -114 -184 -367
-0 -0 -0 -0 -0 -0 -0 -0 -0 -0 -0 -0 -0 -0 -0 -0 -0 -0 -0 -0 -0 -0 -0 -0 -0 -0 -0 -0 -0 -0 -0 -0 -0 -0 -0 -0 -0 -107 -87 -91 -106 -106 -154 -176 -228
-0 -0 -0 -0 -0 -0 -0 -0 -0 -0 -0 -0 -0 -0 -0 -0 -0 -0 -0 -0 -0 -0 -0 -0 -0 -0 -0 -0 -0 -0 -0 -0 -0 -0 -0 -0 -0 -87 -73 -33 -72 -40 -98 -166 -172
-0 -0 -0 -0 -0 -0 -0 -0 -0 -0 -0 -0 -0 -0 -0 -0 -0 -0 -0 -0 -0 -0 -0 -0 -0 -0 -0 -0 -0 -0 -0 -0 -0 -0 -0 -0 -0 -0 -30 -1 -0 -6 -80 -108 -165
-0 -0 -0 -0 -0 -0 -0 -0 -0 -0 -0 -0 -0 -0 -0 -0 -0 -0 -0 -0 -0 -0 -0 -0 -0 -0 -0 -0 -0 -0 -0 -0 -0 -0 -0 -0 -0 -0 -0 -0 -0 -0 -52 -88 -156
Wind_Speed
15 16 16 16 16 17 16 16 16 15 14 14 13 11 10 10 13 5 8 11 10 12 3 6 10 14 14 4 3 7 3 4 5 7 6 5 23 9 6 8 3 5 14 17 16
17 16 16 16 17 17 17 16 16 16 15 14 13 13 11 9 5 9 11 7 10 16 5 1 2 7 4 7 6 2 3 8 9 7 9 10 23 12 6 2 6 5 17 19 17
16 17 17 17 16 18 17 17 16 16 16 15 13 12 10 8 5 6 16 9 10 11 6 8 1 5 6 8 2 3 6 9 1 2 6 15 19 14 13 1 6 19 22 19 12
18 17 17 17 17 17 18 18 17 16 15 14 12 10 8 5 4 3 7 10 11 7 5 22 12 5 7 11 16 23 23 19 7 4 6 10 22 13 6 11 16 12 22 17 14
19 18 17 17 18 17 18 18 18 17 15 13 10 8 6 3 10 6 8 9 8 6 7 18 5 8 17 18 16 16 13 14 10 4 3 4 12 8 7 15 18 18 19 16 11
19 19 19 18 18 18 17 17 18 18 16 12 8 2 3 5 7 13 8 6 7 8 12 14 20 28 16 15 11 17 21 11 8 11 5 8 7 10 15 19 15 19 16 16 13
19 19 19 19 19 18 18 16 18 19 16 11 5 5 5 15 12 11 10 5 8 10 15 27 29 17 15 5 12 18 11 11 9 4 6 5 5 3 11 20 18 17 16 17 16
19 19 19 20 19 18 17 17 19 18 15 8 4 5 9 6 9 13 11 10 13 16 15 25 22 17 8 5 9 10 8 6 7 1 6 12 9 7 5 18 19 18 17 17 16
19 18 18 19 19 17 16 19 20 17 10 4 4 4 9 2 4 10 11 12 13 16 12 14 8 5 8 5 4 5 7 7 14 15 10 5 6 8 8 13 17 18 15 15 14
17 16 16 16 15 14 17 16 11 13 6 7 8 5 8 13 9 10 10 11 9 8 8 5 8 7 9 11 3 3 6 9 13 14 6 5 6 21 14 10 16 16 14 11 9
18 15 13 12 11 10 11 1 1 1 5 11 11 8 12 7 2 5 9 9 8 8 8 10 9 12 20 34 28 18 17 18 2 17 2 4 32 30 24 14 8 15 14 11 11
18 15 12 9 8 5 4 4 9 5 7 19 19 15 18 5 5 9 8 7 6 8 10 9 9 23 11 22 20 11 17 18 7 16 11 7 21 23 15 20 23 14 17 16 14
19 15 11 7 4 2 5 9 11 8 3 9 14 10 13 5 7 11 6 11 10 10 13 13 12 18 16 12 13 17 9 20 8 10 8 8 6 9 6 6 4 18 16 19 20
20 15 11 5 1 3 6 10 6 7 3 7 7 8 15 9 13 12 13 12 7 12 12 12 11 24 13 5 8 9 13 11 13 9 5 5 2 4 5 10 9 7 5 14 21
21 16 10 1 7 5 5 6 5 3 3 9 7 1 7 12 9 15 14 8 13 12 6 11 13 15 7 14 14 11 22 7 7 9 8 4 7 9 7 7 10 10 9 8 21
22 16 15 4 4 11 12 8 3 2 7 7 8 8 7 8 10 11 5 8 8 9 10 12 12 10 19 17 16 17 11 6 8 7 5 1 8 7 5 10 9 16 9 11 14
23 13 5 5 6 9 6 5 1 3 5 4 3 4 9 10 13 11 8 7 7 4 8 14 19 19 14 12 14 10 11 5 6 4 6 8 8 12 15 11 20 19 17 15 13
23 11 10 8 10 12 5 3 4 10 15 13 11 12 7 10 7 7 6 6 9 10 7 6 8 7 7 4 9 11 10 7 6 6 5 4 5 6 9 6 22 20 20 18 15
26 4 4 7 11 7 2 2 4 7 11 9 10 8 10 7 7 2 4 7 8 4 3 4 8 15 15 15 7 12 5 13 5 6 4 3 4 8 10 8 7 1 26 25 22
5 4 7 10 9 2 1 6 4 8 7 7 5 8 10 14 11 11 8 10 11 17 10 9 5 7 18 17 20 5 6 7 5 0 5 6 6 3 7 12 19 27 14 23 22
4 2 1 2 3 0 4 5 5 7 7 5 9 7 10 8 9 10 10 7 11 14 11 9 7 10 10 6 11 16 9 7 4 6 6 3 6 9 14 15 11 18 16 16 12
6 4 2 2 1 3 2 1 1 7 11 8 6 9 9 11 8 8 10 8 6 6 4 6 3 5 10 17 18 15 8 8 5 11 3 5 7 8 14 16 18 5 14 11 18
6 5 3 2 2 5 10 9 2 6 6 6 8 10 10 7 5 6 11 12 18 11 3 3 4 6 11 10 9 6 16 13 13 6 6 5 7 3 14 10 13 11 9 12 7
4 5 6 5 5 7 7 6 8 8 14 11 6 8 7 6 8 8 10 11 18 6 7 3 3 5 6 9 11 15 18 15 8 5 9 8 8 11 1 7 6 7 9 10 9
2 4 5 5 7 9 7 6 3 8 8 9 8 13 9 6 8 8 15 14 18 9 8 7 6 8 10 12 16 20 20 15 14 11 5 12 12 4 4 8 3 7 8 9 9
5 6 7 9 12 6 7 8 10 11 9 6 7 10 8 6 6 8 9 7 7 10 9 9 6 9 9 12 14 19 18 17 14 16 14 12 19 1 5 7 4 6 7 10 10
7 7 4 9 9 6 6 6 9 7 5 13 11 8 8 10 8 7 8 12 14 14 15 7 3 5 8 10 15 12 8 10 14 14 9 11 14 10 5 7 7 6 8 10 10
Wind_Direction
339 336 336 333 329 329 330 329 327 326 325 324 325 324 315 309 295 223 237 228 186 178 155 224 207 240 244 30 335 165 121 224 239 158 249 262 87 52 332 243 107 313 140 151 155
334 332 330 329 326 324 325 325 323 323 324 324 324 324 316 324 263 241 244 174 144 141 178 202 360 20 30 322 15 339 146 239 206 191 220 141 110 199 200 201 356 326 131 146 161
330 327 325 324 322 320 320 319 319 319 321 323 323 319 313 312 281 230 160 160 141 151 205 308 168 66 56 341 6 271 263 240 164 51 43 132 129 155 148 35 218 136 138 151 159
325 323 320 319 318 317 316 315 315 316 320 321 320 313 315 253 19 125 155 153 139 166 201 41 3 52 63 341 331 303 265 261 131 166 201 134 141 165 185 189 191 201 144 157 168
322 319 317 315 314 313 312 313 313 316 320 321 318 311 299 252 246 137 161 143 142 154 213 145 127 13 35 328 307 259 297 336 359 147 202 123 137 143 155 152 181 192 150 162 168
321 318 316 315 313 312 311 311 312 312 317 317 312 302 254 260 112 142 168 153 185 187 193 99 108 128 160 256 290 306 285 319 325 316 261 155 147 119 140 154 167 150 154 164 176
318 314 311 309 307 307 309 308 308 305 311 308 277 235 260 243 135 155 175 190 232 221 244 125 167 159 166 218 241 273 318 350 299 269 311 161 74 95 148 152 146 150 165 176 187
317 311 306 303 303 305 306 303 301 298 302 300 184 237 253 250 171 161 204 194 217 236 244 144 155 121 200 145 342 331 307 345 295 330 341 92 268 238 262 145 150 161 179 182 189
317 311 304 300 300 303 303 297 293 290 268 261 199 226 269 275 238 206 186 217 224 232 236 134 68 45 3 42 43 2 312 311 318 284 177 102 259 242 259 158 158 168 188 184 186
316 308 303 298 297 303 301 281 286 311 216 209 261 303 266 232 231 218 190 222 260 291 298 228 72 58 18 6 267 212 283 300 229 262 190 173 178 19 340 212 168 173 184 184 174
325 317 305 296 295 309 328 244 323 280 244 202 193 212 272 239 268 187 197 218 240 268 270 279 94 118 134 254 253 259 263 277 268 272 312 136 118 151 229 7 203 177 186 175 180
332 327 316 301 293 312 288 254 270 299 295 222 254 254 259 281 202 220 246 210 236 249 264 284 153 170 216 248 260 313 315 254 262 262 274 213 123 184 147 155 242 213 185 180 176
338 334 328 308 319 263 236 245 289 312 271 273 206 224 244 204 252 274 225 227 218 255 274 276 278 99 273 289 334 313 265 261 223 260 310 117 107 118 216 343 222 193 195 184 177
339 337 337 338 330 252 224 243 288 329 319 265 177 236 235 241 258 234 234 256 248 237 258 268 283 175 190 207 268 306 281 300 340 10 300 129 262 349 181 241 237 143 168 204 184
336 333 327 350 308 284 346 340 319 10 296 172 192 165 195 197 243 287 239 231 252 269 270 274 293 297 163 216 229 271 284 342 325 311 313 286 80 297 315 313 317 238 183 214 196
330 327 325 155 219 250 294 308 330 359 249 153 149 192 210 205 229 249 229 207 226 250 271 257 257 266 276 275 275 287 298 310 302 289 31 191 106 271 241 237 274 273 228 200 220
324 314 298 321 250 322 305 315 319 225 294 59 118 185 210 215 231 225 210 204 198 210 247 258 260 255 252 269 274 265 293 323 324 345 201 150 122 215 235 214 201 247 256 239 214
325 310 211 229 272 300 321 343 263 27 15 8 7 344 317 296 222 310 184 247 258 212 245 250 324 40 315 284 220 224 201 169 242 287 257 234 248 257 249 238 188 219 232 253 202
317 202 239 249 226 251 6 310 329 23 16 353 324 287 298 310 196 277 303 295 327 53 86 21 322 329 340 328 353 281 331 218 220 277 358 246 307 308 295 321 79 258 290 222 182
311 286 267 248 167 222 37 254 39 67 12 326 331 1 345 350 10 0 358 34 356 28 15 346 346 339 319 334 313 311 241 8 355 79 298 292 299 171 40 23 9 323 264 177 168
256 261 187 310 171 298 226 289 47 17 73 345 342 338 325 335 357 343 346 8 35 359 20 4 31 315 351 321 307 333 341 324 165 149 191 255 280 207 136 142 88 312 10 30 315
320 312 181 264 22 222 223 357 334 10 24 0 336 357 15 356 354 345 329 318 40 40 13 11 307 300 287 305 296 286 297 9 27 297 221 171 261 171 155 148 124 212 283 67 264
317 269 18 24 23 343 17 350 352 53 36 350 355 9 344 328 326 308 325 327 18 356 70 44 338 336 329 335 335 15 334 343 332 352 300 147 265 135 158 151 150 180 77 65 42
304 342 348 338 48 16 12 345 355 32 55 22 324 300 307 346 358 327 335 335 355 15 353 27 224 219 232 262 298 304 316 324 326 337 311 308 327 19 355 141 61 70 91 83 62
359 7 18 338 333 326 304 319 333 21 38 18 349 337 21 0 337 326 338 338 334 332 339 336 305 303 293 301 301 299 305 310 305 295 298 302 319 356 197 73 120 124 114 82 63
16 360 341 289 285 286 24 26 15 8 5 333 354 348 350 332 318 329 340 331 275 327 349 332 309 324 312 294 287 292 298 296 293 297 297 301 296 94 304 139 196 249 164 133 126
353 332 275 286 305 353 30 8 340 346 318 344 336 345 324 305 347 323 297 283 268 278 279 277 264 307 281 303 308 303 291 296 297 292 306 295 289 311 247 236 266 271 198 158 137